User: anonymous   Login
Location: Caltech
(34.1382°N, 118.1253°W)
Time: 20:05:21
(UTC-07:00)
Language:

Iridium 95 - Orbit

View from above orbital plane
View from above orbital plane
View from above satellite
View from above satellite

Ground track
Ground track

The orbit data is extracted from the following two-line orbital elements,

1 27375U 02005D   15108.22948792  .00000290  00000-0  96669-4 0  9990
2 27375 086.3955 258.0959 0002231 096.4499 263.6951 14.34216423697542
Epoch (UTC): 18 April 2015 05:30:27
Eccentricity: 0.0002231
inclination: 86.3955°
perigee height: 776 km
apogee height: 779 km
right ascension of ascending node: 258.0959°
argument of perigee: 96.4499°
revolutions per day: 14.34216423
mean anomaly at epoch: 263.6951°
orbit number at epoch: 69754

The dashed part of the orbit path shows where the satellite is in the earth's shadow,  

DLR